| time (UTC) | temp F | wind direction | speed MPH | gust MPH | rain 1hr in | rain 24hr in | rain mn in | humidity % | barometer mb |
| 20260505092244 | 50 | 295 | 0.0 | 1.0 | 0.00 | 0.03 | 0.03 | 99 | 1013.8 |
| 20260505091740 | 50 | 257 | 0.0 | 1.0 | 0.00 | 0.03 | 0.03 | 99 | 1013.9 |
| 20260505091239 | 50 | 292 | 0.0 | 0.0 | 0.00 | 0.03 | 0.03 | 99 | 1014.2 |
| 20260505090735 | 50 | 266 | 3.0 | 5.0 | 0.00 | 0.03 | 0.03 | 99 | 1014.3 |
| 20260505090234 | 50 | 270 | 0.0 | 1.0 | 0.00 | 0.03 | 0.03 | 99 | 1014.3 |
| 20260505085731 | 50 | 287 | 0.0 | 1.0 | 0.07 | 0.03 | 0.03 | 99 | 1014.4 |
| 20260505085229 | 50 | 273 | 0.0 | 1.0 | 0.07 | 0.03 | 0.03 | 99 | 1014.1 |
| 20260505084726 | 50 | 287 | 1.0 | 2.0 | 0.05 | 0.02 | 0.02 | 99 | 1014.2 |
| 20260505084225 | 50 | 330 | 1.0 | 2.0 | 0.05 | 0.02 | 0.02 | 99 | 1014.2 |
| 20260505083722 | 50 | 266 | 1.0 | 2.0 | 0.00 | 0.01 | 0.01 | 99 | 1014.2 |
| 20260505083218 | 50 | 309 | 0.0 | 0.0 | 0.07 | 0.01 | 0.01 | 99 | 1014.2 |
| 20260505082714 | 50 | 295 | 0.0 | 0.0 | 0.07 | 0.01 | 0.01 | 99 | 1014.2 |
| 20260505082212 | 50 | 276 | 1.0 | 2.0 | 0.00 | 0.00 | 0.00 | 99 | 1014.3 |
| 20260505081707 | 50 | 300 | 1.0 | 1.0 | 0.00 | 0.00 | 0.00 | 99 | 1014.1 |
| 20260505081205 | 50 | 289 | 0.0 | 1.0 | 0.00 | 0.00 | 0.00 | 99 | 1014.4 |
| 20260505080702 | 50 | 287 | 0.0 | 0.0 | 0.00 | 0.00 | 0.00 | 99 | 1014.5 |
| 20260505080158 | 50 | 319 | 0.0 | 0.0 | 0.00 | 0.00 | 0.00 | 99 | 1014.5 |
| 20260505075654 | 50 | 315 | 0.0 | 0.0 | 0.00 | 0.00 | 0.00 | 99 | 1014.8 |
| 20260505075151 | 50 | 289 | 0.0 | 1.0 | 0.00 | 0.00 | 0.00 | 99 | 1014.5 |
| 20260505074648 | 50 | 294 | 1.0 | 2.0 | 0.00 | 0.00 | 0.00 | 99 | 1014.5 |
| 20260505074145 | 50 | 279 | 0.0 | 1.0 | 0.00 | 0.00 | 0.00 | 99 | 1014.5 |
| 20260505073643 | 50 | 292 | 1.0 | 1.0 | 0.00 | 0.00 | 0.00 | 99 | 1014.3 |
| 20260505073141 | 50 | 301 | 0.0 | 1.0 | 0.00 | 0.00 | 0.00 | 99 | 1014.2 |
| 20260505072636 | 50 | 312 | 1.0 | 1.0 | 0.00 | 0.00 | 0.00 | 99 | 1014.5 |
| 20260505072133 | 50 | 335 | 1.0 | 1.0 | 0.00 | 0.00 | 0.00 | 99 | 1014.3 |
| 20260505071628 | 50 | 286 | 0.0 | 0.0 | 0.00 | 0.00 | 0.00 | 99 | 1014.4 |
| 20260505071126 | 50 | 309 | 0.0 | 0.0 | 0.00 | 0.00 | 0.00 | 99 | 1014.3 |
| 20260505070623 | 50 | 299 | 1.0 | 1.0 | 0.00 | 0.00 | 0.00 | 99 | 1014.5 |
| 20260505070119 | 50 | 299 | 0.0 | 0.0 | 0.00 | 0.00 | 0.00 | 99 | 1014.5 |
| 20260505065615 | 50 | 286 | 1.0 | 2.0 | 0.00 | 0.21 | 0.21 | 99 | 1014.3 |
| 20260505065112 | 50 | 296 | 0.0 | 0.0 | 0.00 | 0.21 | 0.21 | 99 | 1014.7 |
| 20260505064609 | 50 | 290 | 1.0 | 1.0 | 0.00 | 0.21 | 0.21 | 99 | 1014.7 |
| 20260505064108 | 50 | 311 | 1.0 | 2.0 | 0.05 | 0.21 | 0.21 | 99 | 1014.7 |
| 20260505063604 | 50 | 262 | 1.0 | 2.0 | 0.12 | 0.21 | 0.21 | 99 | 1015.1 |
| 20260505063100 | 50 | 290 | 0.0 | 0.0 | 0.07 | 0.20 | 0.20 | 99 | 1015.3 |
| 20260505062557 | 50 | 296 | 0.0 | 0.0 | 0.00 | 0.19 | 0.19 | 99 | 1015.1 |
| 20260505062054 | 50 | 329 | 0.0 | 0.0 | 0.00 | 0.19 | 0.19 | 99 | 1015.5 |
| 20260505061552 | 50 | 311 | 0.0 | 0.0 | 0.00 | 0.19 | 0.19 | 99 | 1015.1 |
| 20260505061049 | 50 | 298 | 0.0 | 0.0 | 0.00 | 0.19 | 0.19 | 99 | 1014.9 |
| 20260505060547 | 50 | 267 | 0.0 | 1.0 | 0.00 | 0.19 | 0.19 | 99 | 1014.8 |
| 20260505060044 | 50 | 292 | 0.0 | 0.0 | 0.00 | 0.19 | 0.19 | 99 | 1014.4 |
| 20260505055538 | 50 | 313 | 0.0 | 0.0 | 0.00 | 0.19 | 0.19 | 99 | 1014.9 |
| 20260505055035 | 50 | 288 | 1.0 | 1.0 | 0.00 | 0.19 | 0.19 | 99 | 1014.5 |
| 20260505054533 | 50 | 291 | 0.0 | 0.0 | 0.00 | 0.19 | 0.19 | 99 | 1014.6 |
| 20260505054031 | 50 | 259 | 1.0 | 1.0 | 0.00 | 0.19 | 0.19 | 99 | 1014.8 |
| 20260505053528 | 50 | 310 | 0.0 | 0.0 | 0.00 | 0.19 | 0.19 | 99 | 1014.7 |
| 20260505053024 | 50 | 288 | 0.0 | 0.0 | 0.00 | 0.19 | 0.19 | 99 | 1014.7 |
| 20260505052521 | 50 | 286 | 1.0 | 1.0 | 0.00 | 0.19 | 0.19 | 99 | 1014.8 |
| 20260505052019 | 50 | 266 | 2.0 | 3.0 | 0.00 | 0.19 | 0.19 | 99 | 1014.9 |
| 20260505051515 | 50 | 279 | 1.0 | 1.0 | 0.00 | 0.19 | 0.19 | 99 | 1015.1 |
| 20260505051014 | 50 | 279 | 0.0 | 0.0 | 0.00 | 0.19 | 0.19 | 99 | 1015.1 |
| 20260505050511 | 50 | 277 | 0.0 | 0.0 | 0.00 | 0.19 | 0.19 | 99 | 1015.5 |
| 20260505041439 | 50 | 284 | 0.0 | 0.0 | 0.00 | 0.19 | 0.19 | 99 | 1015.2 |
| 20260505040936 | 50 | 294 | 0.0 | 0.0 | 0.00 | 0.19 | 0.19 | 99 | 1015.1 |
| 20260505040434 | 50 | 296 | 0.0 | 0.0 | 0.00 | 0.19 | 0.19 | 99 | 1015.1 |
| 20260505035930 | 50 | 304 | 0.0 | 0.0 | 0.00 | 0.19 | 0.19 | 99 | 1015.0 |
| 20260505035426 | 50 | 286 | 0.0 | 1.0 | 0.00 | 0.19 | 0.19 | 99 | 1014.7 |
| 20260505034924 | 50 | 245 | 0.0 | 1.0 | 0.00 | 0.19 | 0.19 | 99 | 1014.8 |
| 20260505034420 | 50 | 312 | 0.0 | 0.0 | 0.00 | 0.19 | 0.19 | 99 | 1014.5 |
| 20260505033917 | 50 | 299 | 0.0 | 0.0 | 0.00 | 0.19 | 0.19 | 99 | 1014.4 |
| 20260505033414 | 50 | 340 | 1.0 | 1.0 | 0.00 | 0.19 | 0.19 | 99 | 1014.3 |
| 20260505032912 | 50 | 308 | 0.0 | 0.0 | 0.00 | 0.19 | 0.19 | 99 | 1014.1 |
| 20260505032409 | 50 | 303 | 0.0 | 0.0 | 0.00 | 0.19 | 0.19 | 99 | 1013.9 |
| 20260505031905 | 50 | 291 | 0.0 | 0.0 | 0.00 | 0.19 | 0.19 | 99 | 1013.4 |
| 20260505031402 | 50 | 289 | 0.0 | 1.0 | 0.00 | 0.19 | 0.19 | 99 | 1013.5 |
| 20260505030859 | 50 | 294 | 0.0 | 0.0 | 0.00 | 0.19 | 0.19 | 99 | 1013.7 |
| 20260505030355 | 50 | 304 | 0.0 | 0.0 | 0.00 | 0.19 | 0.19 | 99 | 1014.1 |
| 20260505025851 | 50 | 306 | 0.0 | 0.0 | 0.00 | 0.19 | 0.19 | 99 | 1014.2 |
| 20260505025349 | 50 | 265 | 1.0 | 1.0 | 0.00 | 0.19 | 0.19 | 99 | 1014.0 |
| 20260505024847 | 50 | 298 | 0.0 | 1.0 | 0.00 | 0.19 | 0.19 | 99 | 1014.6 |
| 20260505024345 | 50 | 266 | 1.0 | 2.0 | 0.00 | 0.19 | 0.19 | 99 | 1014.5 |
| 20260505023841 | 50 | 277 | 0.0 | 1.0 | 0.00 | 0.19 | 0.19 | 99 | 1014.6 |
| 20260505023338 | 50 | 286 | 0.0 | 1.0 | 0.00 | 0.19 | 0.19 | 99 | 1014.6 |
| 20260505022836 | 50 | 267 | 1.0 | 2.0 | 0.05 | 0.19 | 0.19 | 99 | 1014.4 |
| 20260505022332 | 51 | 250 | 1.0 | 2.0 | 0.05 | 0.19 | 0.19 | 99 | 1014.5 |
| 20260505021830 | 51 | 274 | 1.0 | 1.0 | 0.00 | 0.18 | 0.18 | 99 | 1014.9 |
| 20260505021326 | 51 | 296 | 0.0 | 0.0 | 0.07 | 0.18 | 0.18 | 99 | 1014.8 |
| 20260505020822 | 51 | 293 | 0.0 | 0.0 | 0.12 | 0.18 | 0.18 | 99 | 1014.8 |
| 20260505020318 | 51 | 299 | 0.0 | 0.0 | 0.05 | 0.17 | 0.17 | 99 | 1015.0 |
| 20260505015815 | 51 | 296 | 0.0 | 1.0 | 0.07 | 0.16 | 0.16 | 99 | 1014.7 |
| 20260505015312 | 51 | 286 | 1.0 | 2.0 | 0.07 | 0.16 | 0.16 | 99 | 1015.0 |
| 20260505014809 | 51 | 287 | 0.0 | 0.0 | 0.00 | 0.15 | 0.15 | 99 | 1014.9 |
| 20260505014307 | 51 | 267 | 1.0 | 2.0 | 0.00 | 0.15 | 0.15 | 99 | 1014.6 |
| 20260505013802 | 51 | 289 | 0.0 | 1.0 | 0.05 | 0.15 | 0.15 | 99 | 1014.6 |
| 20260505013300 | 51 | 268 | 0.0 | 1.0 | 0.05 | 0.15 | 0.15 | 99 | 1014.9 |
| 20260505012758 | 51 | 294 | 0.0 | 1.0 | 0.07 | 0.14 | 0.14 | 99 | 1015.0 |
| 20260505012255 | 51 | 293 | 0.0 | 1.0 | 0.07 | 0.14 | 0.14 | 99 | 1015.0 |
| 20260505011751 | 51 | 273 | 0.0 | 1.0 | 0.00 | 0.13 | 0.13 | 99 | 1015.0 |
| 20260505011248 | 51 | 308 | 0.0 | 0.0 | 0.00 | 0.13 | 0.13 | 99 | 1014.9 |
| 20260505010744 | 51 | 326 | 0.0 | 0.0 | 0.07 | 0.13 | 0.13 | 99 | 1015.0 |
| 20260505010240 | 51 | 292 | 0.0 | 0.0 | 0.07 | 0.13 | 0.13 | 99 | 1015.0 |
| 20260505005737 | 51 | 291 | 1.0 | 1.0 | 0.00 | 0.12 | 0.12 | 99 | 1014.9 |
| 20260505005234 | 51 | 290 | 0.0 | 0.0 | 0.00 | 0.12 | 0.12 | 99 | 1015.0 |
| 20260505004731 | 51 | 290 | 0.0 | 0.0 | 0.05 | 0.12 | 0.12 | 99 | 1015.0 |
| 20260505004227 | 51 | 288 | 1.0 | 2.0 | 0.05 | 0.12 | 0.12 | 99 | 1015.0 |
| 20260505003725 | 51 | 299 | 0.0 | 0.0 | 0.00 | 0.11 | 0.11 | 99 | 1014.8 |
| 20260505003222 | 51 | 319 | 0.0 | 0.0 | 0.00 | 0.11 | 0.11 | 99 | 1014.8 |
| 20260505002718 | 51 | 308 | 0.0 | 0.0 | 0.07 | 0.11 | 0.11 | 99 | 1014.8 |
| 20260505002216 | 51 | 327 | 1.0 | 1.0 | 0.07 | 0.11 | 0.11 | 99 | 1014.6 |
| 20260505001713 | 51 | 255 | 0.0 | 1.0 | 0.00 | 0.10 | 0.10 | 99 | 1014.8 |
| 20260505001211 | 51 | 292 | 0.0 | 0.0 | 0.05 | 0.10 | 0.10 | 99 | 1014.7 |
| 20260505000708 | 51 | 343 | 1.0 | 1.0 | 0.05 | 0.10 | 0.10 | 99 | 1014.9 |
| 20260505000206 | 51 | 301 | 2.0 | 2.0 | 0.07 | 0.09 | 0.09 | 99 | 1014.8 |
| 20260504235702 | 51 | 246 | 1.0 | 1.0 | 0.07 | 0.09 | 0.09 | 99 | 1014.9 |
| 20260504235158 | 51 | 308 | 1.0 | 2.0 | 0.07 | 0.09 | 0.09 | 99 | 1015.1 |
| 20260504234656 | 51 | 315 | 0.0 | 0.0 | 0.00 | 0.08 | 0.08 | 99 | 1014.9 |
| 20260504234152 | 51 | 312 | 1.0 | 1.0 | 0.00 | 0.08 | 0.08 | 99 | 1014.9 |
| 20260504233648 | 51 | 299 | 1.0 | 2.0 | 0.05 | 0.08 | 0.08 | 99 | 1014.8 |
| 20260504233144 | 51 | 265 | 1.0 | 1.0 | 0.05 | 0.08 | 0.08 | 99 | 1014.8 |
| 20260504232642 | 51 | 302 | 1.0 | 2.0 | 0.07 | 0.07 | 0.07 | 99 | 1014.9 |
| 20260504232139 | 51 | 308 | 0.0 | 0.0 | 0.07 | 0.07 | 0.07 | 99 | 1014.7 |
| 20260504231636 | 51 | 279 | 0.0 | 1.0 | 0.05 | 0.06 | 0.06 | 98 | 1014.9 |
| 20260504231132 | 51 | 290 | 2.0 | 2.0 | 0.05 | 0.06 | 0.06 | 98 | 1014.9 |
| 20260504230628 | 51 | 302 | 0.0 | 0.0 | 0.07 | 0.05 | 0.05 | 98 | 1015.1 |
| 20260504230127 | 52 | 290 | 1.0 | 2.0 | 0.07 | 0.05 | 0.05 | 98 | 1014.9 |
| 20260504225625 | 52 | 274 | 1.0 | 2.0 | 0.05 | 0.04 | 0.04 | 97 | 1015.1 |
| 20260504225121 | 52 | 252 | 0.0 | 1.0 | 0.12 | 0.04 | 0.04 | 97 | 1015.1 |
| 20260504224618 | 52 | 292 | 0.0 | 1.0 | 0.07 | 0.03 | 0.03 | 97 | 1015.0 |
| 20260504224115 | 52 | 322 | 0.0 | 1.0 | 0.14 | 0.03 | 0.03 | 96 | 1015.0 |
| 20260504223612 | 52 | 308 | 0.0 | 0.0 | 0.07 | 0.02 | 0.02 | 95 | 1014.8 |
| 20260504223107 | 53 | 257 | 1.0 | 1.0 | 0.05 | 0.01 | 0.01 | 95 | 1014.9 |
| 20260504222605 | 53 | 297 | 0.0 | 1.0 | 0.05 | 0.01 | 0.01 | 94 | 1015.0 |
| 20260504222101 | 53 | 280 | 0.0 | 1.0 | 0.00 | 0.00 | 0.00 | 93 | 1014.9 |
| 20260504221559 | 53 | 270 | 3.0 | 3.0 | 0.00 | 0.00 | 0.00 | 91 | 1014.6 |
| 20260504221055 | 54 | 251 | 0.0 | 1.0 | 0.00 | 0.00 | 0.00 | 90 | 1014.9 |
| 20260504220552 | 54 | 294 | 0.0 | 1.0 | 0.00 | 0.00 | 0.00 | 90 | 1014.8 |
| 20260504220049 | 54 | 309 | 1.0 | 1.0 | 0.00 | 0.00 | 0.00 | 89 | 1014.9 |
| 20260504215546 | 55 | 312 | 1.0 | 2.0 | 0.00 | 0.00 | 0.00 | 88 | 1014.8 |
| 20260504215043 | 55 | 300 | 0.0 | 1.0 | 0.00 | 0.00 | 0.00 | 87 | 1014.9 |
| 20260504214539 | 55 | 290 | 3.0 | 3.0 | 0.00 | 0.00 | 0.00 | 85 | 1015.1 |
| 20260504214035 | 56 | 301 | 1.0 | 2.0 | 0.00 | 0.00 | 0.00 | 85 | 1015.1 |
| 20260504213532 | 57 | 310 | 1.0 | 2.0 | 0.00 | 0.00 | 0.00 | 83 | 1015.0 |
| 20260504213029 | 57 | 281 | 2.0 | 2.0 | 0.00 | 0.00 | 0.00 | 82 | 1015.1 |
| 20260504212525 | 58 | 300 | 1.0 | 2.0 | 0.00 | 0.00 | 0.00 | 82 | 1015.0 |
| 20260504212023 | 58 | 309 | 0.0 | 0.0 | 0.00 | 0.00 | 0.00 | 82 | 1015.1 |
| 20260504211519 | 58 | 257 | 2.0 | 2.0 | 0.00 | 0.00 | 0.00 | 81 | 1015.0 |
| 20260504211017 | 59 | 286 | 1.0 | 2.0 | 0.00 | 0.00 | 0.00 | 78 | 1015.0 |
| 20260504210513 | 59 | 295 | 3.0 | 5.0 | 0.00 | 0.00 | 0.00 | 78 | 1015.1 |
| 20260504210010 | 60 | 288 | 3.0 | 5.0 | 0.00 | 0.00 | 0.00 | 76 | 1015.1 |
| 20260504205508 | 61 | 250 | 2.0 | 2.0 | 0.00 | 0.00 | 0.00 | 74 | 1015.0 |
| 20260504205006 | 61 | 257 | 2.0 | 2.0 | 0.00 | 0.00 | 0.00 | 74 | 1015.0 |
| 20260504204504 | 62 | 311 | 1.0 | 2.0 | 0.00 | 0.00 | 0.00 | 73 | 1014.9 |
| 20260504204002 | 62 | 315 | 2.0 | 2.0 | 0.00 | 0.00 | 0.00 | 74 | 1014.9 |
| 20260504203500 | 62 | 278 | 4.0 | 5.0 | 0.00 | 0.00 | 0.00 | 75 | 1015.0 |
| 20260504202956 | 61 | 286 | 2.0 | 2.0 | 0.00 | 0.00 | 0.00 | 78 | 1015.1 |
| 20260504202452 | 60 | 276 | 2.0 | 2.0 | 0.00 | 0.00 | 0.00 | 79 | 1015.0 |
| 20260504201949 | 59 | 205 | 2.0 | 2.0 | 0.00 | 0.00 | 0.00 | 79 | 1015.0 |
| 20260504201446 | 58 | 277 | 2.0 | 2.0 | 0.00 | 0.00 | 0.00 | 81 | 1014.9 |
| 20260504200944 | 58 | 279 | 3.0 | 5.0 | 0.00 | 0.00 | 0.00 | 82 | 1015.0 |
| 20260504200441 | 57 | 278 | 3.0 | 5.0 | 0.00 | 0.00 | 0.00 | 82 | 1015.0 |
| 20260504195937 | 57 | 284 | 3.0 | 3.0 | 0.00 | 0.00 | 0.00 | 82 | 1015.2 |
| 20260504195433 | 57 | 294 | 3.0 | 3.0 | 0.00 | 0.00 | 0.00 | 82 | 1015.0 |
| 20260504194930 | 58 | 292 | 1.0 | 1.0 | 0.00 | 0.00 | 0.00 | 82 | 1014.9 |
| 20260504194426 | 58 | 264 | 3.0 | 5.0 | 0.00 | 0.00 | 0.00 | 81 | 1014.9 |
| 20260504193922 | 58 | 282 | 1.0 | 2.0 | 0.00 | 0.00 | 0.00 | 80 | 1014.7 |
| 20260504193419 | 59 | 300 | 0.0 | 0.0 | 0.00 | 0.00 | 0.00 | 79 | 1014.8 |
| 20260504192918 | 59 | 276 | 3.0 | 3.0 | 0.00 | 0.00 | 0.00 | 78 | 1014.8 |
| 20260504192415 | 59 | 327 | 2.0 | 2.0 | 0.00 | 0.00 | 0.00 | 76 | 1015.0 |
| 20260504191914 | 60 | 320 | 1.0 | 2.0 | 0.00 | 0.00 | 0.00 | 76 | 1014.9 |
| 20260504191411 | 61 | 222 | 3.0 | 3.0 | 0.00 | 0.00 | 0.00 | 75 | 1014.9 |
| 20260504190906 | 62 | 313 | 0.0 | 1.0 | 0.00 | 0.00 | 0.00 | 74 | 1014.8 |
| 20260504190402 | 62 | 276 | 0.0 | 0.0 | 0.00 | 0.00 | 0.00 | 74 | 1014.8 |
| 20260504185859 | 61 | 214 | 1.0 | 3.0 | 0.00 | 0.00 | 0.00 | 75 | 1014.9 |
| 20260504185356 | 61 | 225 | 5.0 | 7.0 | 0.00 | 0.00 | 0.00 | 72 | 1014.8 |
| 20260504184852 | 62 | 279 | 3.0 | 5.0 | 0.00 | 0.00 | 0.00 | 73 | 1014.9 |
| 20260504184348 | 63 | 240 | 1.0 | 3.0 | 0.00 | 0.00 | 0.00 | 71 | 1015.0 |
| 20260504183844 | 63 | 292 | 2.0 | 2.0 | 0.00 | 0.00 | 0.00 | 71 | 1014.9 |
| 20260504183342 | 63 | 328 | 3.0 | 3.0 | 0.00 | 0.00 | 0.00 | 74 | 1014.6 |
| 20260504182839 | 61 | 287 | 2.0 | 2.0 | 0.00 | 0.00 | 0.00 | 73 | 1014.9 |
| 20260504182337 | 62 | 236 | 1.0 | 1.0 | 0.00 | 0.00 | 0.00 | 70 | 1014.7 |
| 20260504181833 | 63 | 238 | 2.0 | 2.0 | 0.00 | 0.00 | 0.00 | 64 | 1014.9 |
| 20260504181331 | 64 | 131 | 1.0 | 2.0 | 0.00 | 0.00 | 0.00 | 64 | 1014.9 |
| 20260504180830 | 63 | 21 | 1.0 | 1.0 | 0.00 | 0.00 | 0.00 | 63 | 1014.8 |
| 20260504180328 | 61 | 327 | 0.0 | 0.0 | 0.00 | 0.00 | 0.00 | 72 | 1015.0 |
| 20260504175825 | 61 | 222 | 0.0 | 1.0 | 0.00 | 0.00 | 0.00 | 70 | 1014.9 |
| 20260504175322 | 62 | 264 | 2.0 | 2.0 | 0.00 | 0.00 | 0.00 | 71 | 1015.1 |
| 20260504174820 | 63 | 276 | 2.0 | 3.0 | 0.00 | 0.00 | 0.00 | 70 | 1014.7 |
| 20260504174317 | 62 | 285 | 0.0 | 1.0 | 0.00 | 0.00 | 0.00 | 71 | 1014.8 |
| 20260504173814 | 61 | 300 | 3.0 | 3.0 | 0.00 | 0.00 | 0.00 | 70 | 1014.8 |
| 20260504173311 | 61 | 350 | 1.0 | 1.0 | 0.00 | 0.00 | 0.00 | 71 | 1014.7 |
| 20260504172808 | 61 | 287 | 0.0 | 0.0 | 0.00 | 0.00 | 0.00 | 75 | 1014.7 |
| 20260504172305 | 60 | 271 | 2.0 | 3.0 | 0.00 | 0.00 | 0.00 | 72 | 1014.9 |
| 20260504171800 | 60 | 290 | 5.0 | 7.0 | 0.00 | 0.00 | 0.00 | 73 | 1014.8 |
| 20260504171258 | 60 | 261 | 2.0 | 3.0 | 0.00 | 0.00 | 0.00 | 72 | 1014.6 |
| 20260504170755 | 60 | 258 | 4.0 | 5.0 | 0.00 | 0.00 | 0.00 | 75 | 1014.5 |
| 20260504170252 | 61 | 306 | 2.0 | 2.0 | 0.00 | 0.00 | 0.00 | 74 | 1014.7 |
| 20260504160210 | 57 | 326 | 1.0 | 2.0 | 0.00 | 0.00 | 0.00 | 81 | 1014.7 |
| 20260504151138 | 55 | 276 | 0.0 | 0.0 | 0.00 | 0.00 | 0.00 | 88 | 1014.6 |
| 20260504150636 | 54 | 265 | 0.0 | 1.0 | 0.00 | 0.00 | 0.00 | 89 | 1014.4 |
| 20260504150132 | 53 | 290 | 0.0 | 0.0 | 0.00 | 0.00 | 0.00 | 93 | 1014.5 |
| 20260504141101 | 49 | 280 | 0.0 | 0.0 | 0.00 | 0.00 | 0.00 | 99 | 1014.2 |
| 20260504140557 | 49 | 283 | 0.0 | 0.0 | 0.00 | 0.00 | 0.00 | 99 | 1014.3 |
| 20260504130521 | 45 | 284 | 0.0 | 0.0 | 0.00 | 0.00 | 0.00 | 99 | 1013.9 |
| 20260504110409 | 45 | 289 | 0.0 | 0.0 | 0.00 | 0.00 | 0.00 | 99 | 1013.8 |
| 20260504100326 | 46 | 280 | 0.0 | 0.0 | 0.00 | 0.00 | 0.00 | 99 | 1013.6 |